Regional Weather Roundup
Issued by NWS Newport/Morehead, NC

Current Version | Previous Version | Text Only | Print | Product List | Glossary On
Versions: 1 2 3 4 5 6 7 8 9 10 11 12 13 14 15 16 17 18 19 20 21 22 23 24 25 26 27 28 29 30 31 32 33 34 35 36 37 38 39 40 41 42 43 44 45 46 47 48 49 50
000 ASUS42 KMHX 231010 RWRMHX WEATHER ROUNDUP FOR EASTERN NORTH CAROLINA NATIONAL WEATHER SERVICE NEWPORT/MOREHEAD CITY NC 600 AM EDT TUE SEP 23 2014 NOTE: "FAIR" INDICATES FEW OR NO CLOUDS BELOW 12,000 FEET WITH NO SIGNIFICANT WEATHER AND/OR OBSTRUCTIONS TO VISIBILITY NCZ015>017-031-032-045>047-102-103-231100- NORTH COAST CITY SKY/WX TMP DP RH WIND PRES REMARKS EDENTON CLOUDY 62 53 73 NE8 30.20R ELIZABETH CITY CLOUDY 62 54 74 N13 30.20R KITTY HAWK CLOUDY 68 53 59 NE10G17 30.18R MANTEO CLOUDY 67 54 63 NE14 30.18S $$ NCZ045>047-081-094-103-104-231100- CENTRAL COAST CITY SKY/WX TMP DP RH WIND PRES REMARKS FRISCO CLOUDY 68 58 70 NE9G18 30.16R SWANQUARTER N/A 66 N/A N/A NE8G14 30.15R $$ NCZ095-097-098-100-101-231100- SOUTHERN COAST CITY SKY/WX TMP DP RH WIND PRES REMARKS BEAUFORT CLOUDY 70 61 73 NE13 30.13S CEDAR ISLAND N/A 72 N/A N/A NE25 30.21R JACKSONVILLE CLOUDY 67 61 81 NE10 30.13S NEWPORT NOT AVBL PINEY ISLAND CLOUDY 73 59 61 NE18G28 30.15R WILMINGTON CLOUDY 65 63 93 N8 30.12R $$ NCZ011>013-027>030-043-044-078>080-089-090>093-098-231100- COASTAL PLAIN CITY SKY/WX TMP DP RH WIND PRES REMARKS AHOSKIE CLOUDY 58 47 68 N8 30.23R CLINTON CLOUDY 65 61 85 NE6 30.17R ELIZABETHTOWN CLOUDY 65 59 79 CALM 30.14R GOLDSBORO CLOUDY 63 61 91 N2 30.18R GREENVILLE CLOUDY 61 55 82 N7 30.21R HAVELOCK CLOUDY 69 59 70 NE13G23 30.16R KENANSVILLE CLOUDY 63 59 88 NE3 30.18R KINSTON CLOUDY 64 58 79 N7 30.20R NEW BERN CLOUDY 67 60 78 NE5 30.18R RICHLANDS CLOUDY 64 57 77 NE9 30.16R ROANOKE RAPIDS NOT AVBL ROCKY MOUNT CLOUDY 60 48 64 N10 30.21R WASHINGTON CLOUDY 61 57 86 N7 30.19R WHITEVILLE CLOUDY 65 60 83 NE7 30.12R $$ AMZ130-135-150-152-154-156-158-170-250-252-270-ANZ085-086-088-633-658-670-231100- MARINE OBSERVATIONS STATION/POSITION TIME TEMP WIND PRES WAVE SWELL AIR SEA DIR/SP/G HT/PER HT/PER (UTC) (F) (DEG/KT/KT) (MB) (FT/S) (FT/S) CHESAPEAKE LIGHT 0900 65 30/ 18/ 21 1023.4 BUOY 44014 1000 69 75 30/ 16/ 19 1022.0 4/ 7 2/10 DUCK 1000 69 74 30/ 19/ 23 1021.5 2E DUCK 1000 N/A 5/ 5 OREGON INLET 1000 69 75 20/ 14/ 20 1021.6 BUOY 44095 1000 74 N/A 5/ 5 20E OREGON INLET NOT AVBL HATTERAS CG NOT AVBL DIAMOND BUOY 1000 73 30/ 19/ 25 1020.2 5/ 7 2/ 9 CAPE LOOKOUT 0900 73 40/ 21/ 25 1019.8 BEAUFORT LAB 1000 70 76 50/ 9/ 13 1019.8 30 SE NEW RIVER 1000 75 82 50/ 25/ 27 1018.2 5/ 5 2/ 9 5 SE WRIGHTSVILL 0900 72 79 50/ 19/ 23 N/A BUOY 41002 0948 79 81 60/ 6/ 8 1018.1 3/ 7 3/ 7 BUOY 41004 1000 72 81 40/ 14/ 16 1017.3 4/ 5 2/ 8 $$

USA.gov is the U.S. government's official web portal to all federal, state and local government web resources and services.